sat.trackr.live / text

‹ back to catalog

SES-9

NORAD 41380 · 2016-013A

PAYLOAD ACTIVE UNKNOWN

§ Identity

Operator
Country
SES
Launch date
2016-03-04
Launch site
AFETR
Launch vehicle
Mass (kg)
RCS (m²)
20.53

Purposes: comms

External: N2YO · Heavens-Above · Gunter

§ Orbital elements

Epoch: 2026-05-24T23:07:31.297152Z

Period
1,436.10 min
Inclination
0.0127°
Eccentricity
0.0002282
Mean motion
1.00271553 rev/d
Perigee alt
35,777.0 km
Apogee alt
35,796.3 km
Semi-major
42,164.8 km
B*
0.0000e+0
RAAN
355.7597°
Arg perigee
75.7308°
Mean anomaly
266.2486°
Rev number
3,720

§ Raw data

SES-91 41380U 16013A   26144.96355668 -.00000348  00000+0  00000+0 0  99962 41380   0.0127 355.7597 0002282  75.7308 266.2486  1.00271553 37203

JSON: /api/v1/satellites/41380 · /tle

For live sub-satellite position, see the globe view (requires WebGL).

§ Visibility from observer

Set your observer location to see the next 7 days of passes ≥ 10°. The values pass through the URL so the page stays shareable.

No JS? Fill the form by hand. The geolocation button needs JavaScript.